time, Switch, Flow(0), Analog(2)
yyyy/mm/dd HH:MM:SS.fff, True=FILTERED|False=TOTAL, L/min, V
2023/07/07 05:00:01.168, True, 4.974, 0.147631
2023/07/07 05:00:01.672, True, 4.647, 0.150378
2023/07/07 05:00:02.168, True, 4.712, 0.146792
2023/07/07 05:00:02.672, True, 4.643, 0.148241
2023/07/07 05:00:03.176, True, 4.642, 0.148699
2023/07/07 05:00:03.672, True, 4.043, 0.151751
2023/07/07 05:00:04.176, True, 2.321, 0.149157
2023/07/07 05:00:04.680, True, 1.326, 0.147631
2023/07/07 05:00:05.176, True, 1.011, 0.149386
2023/07/07 05:00:05.680, True, 0.995, 0.149233
2023/07/07 05:00:06.184, True, 0.663, 0.148623
2023/07/07 05:00:06.680, True, 1.011, 0.150225
2023/07/07 05:00:07.183, True, 0.663, 0.149767
2023/07/07 05:00:07.688, True, 0.664, 0.146944
2023/07/07 05:00:08.192, True, 0.993, 0.147936
2023/07/07 05:00:08.688, True, 0.675, 0.147555
2023/07/07 05:00:09.192, True, 0.663, 0.149615
2023/07/07 05:00:09.696, True, 0.663, 0.149233
2023/07/07 05:00:10.192, True, 1.011, 0.147478
2023/07/07 05:00:10.696, True, 0.663, 0.151598
2023/07/07 05:00:11.199, True, 0.663, 0.151675
2023/07/07 05:00:11.696, True, 0.674, 0.149386
2023/07/07 05:00:12.200, True, 0.996, 0.149081
2023/07/07 05:00:12.704, True, 0.662, 0.147173
2023/07/07 05:00:13.208, True, 0.663, 0.148470
2023/07/07 05:00:13.704, True, 1.011, 0.148165
2023/07/07 05:00:14.208, True, 0.663, 0.148470
2023/07/07 05:00:14.712, True, 0.663, 0.149386
2023/07/07 05:00:15.208, True, 0.674, 0.148470
2023/07/07 05:00:15.712, True, 0.663, 0.148089
2023/07/07 05:00:16.216, True, 0.995, 0.146563
2023/07/07 05:00:16.712, True, 0.674, 0.146944
2023/07/07 05:00:17.216, True, 0.664, 0.148165
2023/07/07 05:00:17.720, True, 0.663, 0.147707
2023/07/07 05:00:18.216, True, 1.011, 0.147707
2023/07/07 05:00:18.720, True, 0.663, 0.147402
2023/07/07 05:00:19.224, True, 0.663, 0.147631
2023/07/07 05:00:19.720, True, 0.674, 0.149844
2023/07/07 05:00:20.224, True, 0.663, 0.148470
2023/07/07 05:00:20.728, True, 0.995, 0.150759
2023/07/07 05:00:21.224, True, 0.674, 0.147555
2023/07/07 05:00:21.728, True, 0.663, 0.148165
2023/07/07 05:00:22.232, True, 0.663, 0.149157
2023/07/07 05:00:22.736, True, 0.995, 0.149767
2023/07/07 05:00:23.232, True, 0.674, 0.148013
2023/07/07 05:00:23.736, True, 0.663, 0.147555
2023/07/07 05:00:24.231, True, 0.674, 0.148699
2023/07/07 05:00:24.736, True, 0.663, 0.148699
2023/07/07 05:00:25.240, True, 0.995, 0.149310
2023/07/07 05:00:25.736, True, 0.674, 0.149233
2023/07/07 05:00:26.240, True, 0.663, 0.148013
2023/07/07 05:00:26.744, True, 0.663, 0.150835
2023/07/07 05:00:27.240, True, 0.674, 0.149004
2023/07/07 05:00:27.744, True, 0.663, 0.150530
2023/07/07 05:00:28.240, True, 1.011, 0.146792
2023/07/07 05:00:28.744, True, 0.663, 0.146792
2023/07/07 05:00:29.248, True, 0.663, 0.147097
2023/07/07 05:00:29.752, True, 0.663, 0.147631
2023/07/07 05:00:30.248, True, 0.674, 0.147555
2023/07/07 05:00:30.752, True, 0.995, 0.147326
2023/07/07 05:00:31.256, True, 0.663, 0.148318
2023/07/07 05:00:31.752, True, 0.674, 0.146181
2023/07/07 05:00:32.256, True, 0.664, 0.149310
2023/07/07 05:00:32.760, True, 0.995, 0.147097
2023/07/07 05:00:33.264, True, 0.663, 0.147250
2023/07/07 05:00:33.759, True, 0.674, 0.148089
2023/07/07 05:00:34.263, True, 0.663, 0.148547
2023/07/07 05:00:34.768, True, 0.994, 0.147326
2023/07/07 05:00:35.264, True, 0.673, 0.148852
2023/07/07 05:00:35.767, True, 0.663, 0.149081
2023/07/07 05:00:36.272, True, 0.663, 0.148165
2023/07/07 05:00:36.768, True, 1.011, 0.149386
2023/07/07 05:00:37.272, True, 0.663, 0.150378
2023/07/07 05:00:37.768, True, 0.674, 0.145953
2023/07/07 05:00:38.272, True, 0.663, 0.149691
2023/07/07 05:00:38.776, True, 0.995, 0.148089
2023/07/07 05:00:39.272, True, 0.674, 0.147097
2023/07/07 05:00:39.775, True, 0.663, 0.147860
2023/07/07 05:00:40.280, True, 0.663, 0.148394
2023/07/07 05:00:40.776, True, 1.012, 0.148470
2023/07/07 05:00:41.280, True, 0.663, 0.149920
2023/07/07 05:00:41.784, True, 0.663, 0.146639
2023/07/07 05:00:42.280, True, 0.674, 0.146868
2023/07/07 05:00:42.784, True, 0.995, 0.147860
2023/07/07 05:00:43.288, True, 0.663, 0.146944
2023/07/07 05:00:43.783, True, 0.674, 0.149691
2023/07/07 05:00:44.288, True, 0.995, 0.149157
2023/07/07 05:00:44.792, True, 0.662, 0.149996
2023/07/07 05:00:45.288, True, 0.675, 0.147936
2023/07/07 05:00:45.792, True, 0.663, 0.149691
2023/07/07 05:00:46.296, True, 0.996, 0.149844
2023/07/07 05:00:46.792, True, 0.674, 0.149462
2023/07/07 05:00:47.296, True, 0.662, 0.149538
2023/07/07 05:00:47.800, True, 0.664, 0.146334
2023/07/07 05:00:48.304, True, 0.662, 0.150835
2023/07/07 05:00:48.800, True, 1.011, 0.148547
2023/07/07 05:00:49.304, True, 0.663, 0.148318
2023/07/07 05:00:49.808, True, 0.664, 0.147784
2023/07/07 05:00:50.312, True, 0.994, 0.149004
2023/07/07 05:00:50.808, True, 0.674, 0.147478
2023/07/07 05:00:51.312, True, 0.665, 0.147478
2023/07/07 05:00:51.816, True, 0.662, 0.152590
2023/07/07 05:00:52.312, True, 0.674, 0.149310
2023/07/07 05:00:52.816, True, 0.994, 0.149081
2023/07/07 05:00:53.320, True, 0.663, 0.150225
2023/07/07 05:00:53.816, True, 0.675, 0.150454
2023/07/07 05:00:54.320, True, 0.662, 0.145418
2023/07/07 05:00:54.824, True, 0.663, 0.147402
2023/07/07 05:00:55.320, True, 0.675, 0.149233
2023/07/07 05:00:55.824, True, 0.994, 0.148318
2023/07/07 05:00:56.328, True, 0.664, 0.148394
2023/07/07 05:00:56.824, True, 0.674, 0.149615
2023/07/07 05:00:57.328, True, 0.662, 0.148013
2023/07/07 05:00:57.832, True, 0.663, 0.148775
2023/07/07 05:00:58.328, True, 0.674, 0.148623
2023/07/07 05:00:58.832, True, 0.995, 0.148013
2023/07/07 05:00:59.336, True, 0.663, 0.148470
2023/07/07 05:00:59.832, True, 0.674, 0.150759
2023/07/07 05:01:00.336, True, 0.996, 0.148852
2023/07/07 05:01:00.840, True, 0.662, 0.147631
2023/07/07 05:01:01.336, True, 0.674, 0.147173
2023/07/07 05:01:01.840, True, 0.663, 0.148241
2023/07/07 05:01:02.344, True, 0.664, 0.150607
2023/07/07 05:01:02.840, True, 1.010, 0.149615
2023/07/07 05:01:03.344, True, 0.663, 0.151446
2023/07/07 05:01:03.848, True, 0.663, 0.149386
2023/07/07 05:01:04.344, True, 0.674, 0.148165
2023/07/07 05:01:04.848, True, 0.664, 0.147631
2023/07/07 05:01:05.352, True, 0.662, 0.150530
2023/07/07 05:01:05.847, True, 0.674, 0.148318
2023/07/07 05:01:06.352, True, 0.994, 0.148623
2023/07/07 05:01:06.856, True, 0.663, 0.148852
2023/07/07 05:01:07.352, True, 0.674, 0.149844
2023/07/07 05:01:07.856, True, 0.663, 0.148165
2023/07/07 05:01:08.360, True, 0.663, 0.148852
2023/07/07 05:01:08.856, True, 0.674, 0.147326
2023/07/07 05:01:09.360, True, 0.663, 0.149233
2023/07/07 05:01:09.856, True, 1.011, 0.149691
2023/07/07 05:01:10.359, True, 0.663, 0.148318
2023/07/07 05:01:10.864, True, 0.663, 0.146715
2023/07/07 05:01:11.368, True, 0.663, 0.146868
2023/07/07 05:01:11.864, True, 1.010, 0.150607
2023/07/07 05:01:12.368, True, 0.663, 0.149767
2023/07/07 05:01:12.864, True, 0.674, 0.149386
2023/07/07 05:01:13.368, True, 0.664, 0.147097
2023/07/07 05:01:13.872, True, 0.663, 0.149691
2023/07/07 05:01:14.376, True, 0.995, 0.150759
2023/07/07 05:01:14.871, True, 0.674, 0.149004
2023/07/07 05:01:15.376, True, 0.663, 0.149615
2023/07/07 05:01:15.880, True, 0.663, 0.147097
2023/07/07 05:01:16.376, True, 0.674, 0.150454
2023/07/07 05:01:16.880, True, 0.663, 0.150072
2023/07/07 05:01:17.384, True, 0.995, 0.150378
2023/07/07 05:01:17.880, True, 0.674, 0.148394
2023/07/07 05:01:18.384, True, 0.664, 0.150301
2023/07/07 05:01:18.888, True, 0.663, 0.152667
2023/07/07 05:01:19.384, True, 0.674, 0.149996
2023/07/07 05:01:19.888, True, 0.663, 0.150301
2023/07/07 05:01:20.392, True, 0.995, 0.150301
2023/07/07 05:01:20.888, True, 0.674, 0.149233
2023/07/07 05:01:21.392, True, 0.663, 0.150912
2023/07/07 05:01:21.888, True, 0.674, 0.150301
2023/07/07 05:01:22.392, True, 0.663, 0.150530
2023/07/07 05:01:22.896, True, 0.995, 0.150835
2023/07/07 05:01:23.392, True, 0.674, 0.150759
2023/07/07 05:01:23.896, True, 0.663, 0.150912
2023/07/07 05:01:24.400, True, 0.664, 0.151827
2023/07/07 05:01:24.896, True, 1.010, 0.151522
2023/07/07 05:01:25.400, True, 0.663, 0.151064
2023/07/07 05:01:25.904, True, 0.663, 0.151827
2023/07/07 05:01:26.400, True, 0.674, 0.151598
2023/07/07 05:01:26.903, True, 0.995, 0.150301
2023/07/07 05:01:27.408, True, 0.663, 0.152438
2023/07/07 05:01:27.904, True, 0.674, 0.151141
2023/07/07 05:01:28.408, True, 0.664, 0.152972
2023/07/07 05:01:28.912, True, 0.994, 0.150759
2023/07/07 05:01:29.408, True, 0.674, 0.153658
2023/07/07 05:01:29.912, True, 0.663, 0.151369
2023/07/07 05:01:30.416, True, 0.663, 0.151904
2023/07/07 05:01:30.912, True, 0.674, 0.153124
2023/07/07 05:01:31.416, True, 0.995, 0.152285
2023/07/07 05:01:31.920, True, 0.663, 0.150225
2023/07/07 05:01:32.416, True, 0.674, 0.151675
2023/07/07 05:01:32.920, True, 0.664, 0.151827
2023/07/07 05:01:33.424, True, 0.663, 0.153506
2023/07/07 05:01:33.920, True, 0.674, 0.151904
2023/07/07 05:01:34.424, True, 0.995, 0.150835
2023/07/07 05:01:34.928, True, 0.663, 0.151751
2023/07/07 05:01:35.432, True, 0.663, 0.152285
2023/07/07 05:01:35.928, True, 0.674, 0.151980
2023/07/07 05:01:36.432, True, 0.995, 0.151141
2023/07/07 05:01:36.928, True, 0.674, 0.154116
2023/07/07 05:01:37.432, True, 0.663, 0.151980
2023/07/07 05:01:37.936, True, 0.663, 0.152514
2023/07/07 05:01:38.432, True, 1.011, 0.152972
2023/07/07 05:01:38.936, True, 0.663, 0.153277
2023/07/07 05:01:39.440, True, 0.663, 0.153201
2023/07/07 05:01:39.936, True, 1.011, 0.153964
2023/07/07 05:01:40.440, True, 0.663, 0.153735
2023/07/07 05:01:40.944, True, 0.663, 0.154269
2023/07/07 05:01:41.439, True, 0.674, 0.153277
2023/07/07 05:01:41.944, True, 0.663, 0.153887
2023/07/07 05:01:42.448, True, 0.663, 0.154879
2023/07/07 05:01:42.944, True, 0.674, 0.156176
2023/07/07 05:01:43.448, True, 0.995, 0.155032
2023/07/07 05:01:43.944, True, 0.674, 0.156405
2023/07/07 05:01:44.448, True, 0.663, 0.154345
2023/07/07 05:01:44.952, True, 0.663, 0.155108
2023/07/07 05:01:45.448, True, 0.674, 0.154040
2023/07/07 05:01:45.952, True, 0.663, 0.153353
2023/07/07 05:01:46.456, True, 0.663, 0.153735
2023/07/07 05:01:46.952, True, 1.011, 0.154421
2023/07/07 05:01:47.456, True, 0.663, 0.153887
2023/07/07 05:01:47.960, True, 0.664, 0.156252
2023/07/07 05:01:48.456, True, 0.673, 0.158465
2023/07/07 05:01:48.960, True, 0.663, 0.155795
2023/07/07 05:01:49.464, True, 0.995, 0.155795
2023/07/07 05:01:49.960, True, 0.674, 0.154345
2023/07/07 05:01:50.464, True, 0.663, 0.156710
2023/07/07 05:01:50.968, True, 0.663, 0.154879
2023/07/07 05:01:51.472, True, 0.663, 0.156252
2023/07/07 05:01:51.968, True, 1.011, 0.155718
2023/07/07 05:01:52.472, True, 0.663, 0.153201
2023/07/07 05:01:52.968, True, 0.674, 0.154574
2023/07/07 05:01:53.472, True, 0.663, 0.155032
2023/07/07 05:01:53.976, True, 0.995, 0.154726
2023/07/07 05:01:54.472, True, 0.674, 0.154803
2023/07/07 05:01:54.976, True, 0.663, 0.155642
2023/07/07 05:01:55.480, True, 0.663, 0.155871
2023/07/07 05:01:55.984, True, 0.663, 0.154650
2023/07/07 05:01:56.480, True, 0.674, 0.156329
2023/07/07 05:01:56.984, True, 0.663, 0.154726
2023/07/07 05:01:57.488, True, 0.995, 0.156176
2023/07/07 05:01:57.984, True, 0.674, 0.154192
2023/07/07 05:01:58.488, True, 0.663, 0.155108
2023/07/07 05:01:58.992, True, 0.663, 0.154879
2023/07/07 05:01:59.488, True, 1.011, 0.153582
2023/07/07 05:01:59.992, True, 0.663, 0.156252
2023/07/07 05:02:00.496, True, 0.663, 0.155871
2023/07/07 05:02:00.992, True, 0.674, 0.156558
2023/07/07 05:02:01.496, True, 0.663, 0.156558
2023/07/07 05:02:01.999, True, 0.995, 0.155184
2023/07/07 05:02:02.496, True, 0.674, 0.152895
2023/07/07 05:02:03.000, True, 0.663, 0.154574
2023/07/07 05:02:03.504, True, 0.663, 0.155413
2023/07/07 05:02:04.000, True, 0.674, 0.156252
2023/07/07 05:02:04.504, True, 0.995, 0.158389
2023/07/07 05:02:05.008, True, 0.663, 0.156558
2023/07/07 05:02:05.504, True, 0.674, 0.158312
2023/07/07 05:02:06.008, True, 0.663, 0.155795
2023/07/07 05:02:06.512, True, 0.996, 0.155871
2023/07/07 05:02:07.008, True, 0.673, 0.156405
2023/07/07 05:02:07.512, True, 0.663, 0.156939
2023/07/07 05:02:08.016, True, 0.663, 0.158618
2023/07/07 05:02:08.520, True, 0.663, 0.155108
2023/07/07 05:02:09.016, True, 1.011, 0.158694
2023/07/07 05:02:09.520, True, 0.663, 0.155871
2023/07/07 05:02:10.016, True, 0.674, 0.158083
2023/07/07 05:02:10.520, True, 0.663, 0.157321
2023/07/07 05:02:11.024, True, 0.663, 0.155337
2023/07/07 05:02:11.520, True, 1.011, 0.157015
2023/07/07 05:02:12.024, True, 0.664, 0.157321
2023/07/07 05:02:12.527, True, 0.662, 0.156252
2023/07/07 05:02:13.024, True, 0.674, 0.156786
2023/07/07 05:02:13.528, True, 0.995, 0.156023
2023/07/07 05:02:14.032, True, 0.663, 0.157092
2023/07/07 05:02:14.528, True, 0.674, 0.156710
2023/07/07 05:02:15.032, True, 0.665, 0.155642
2023/07/07 05:02:15.536, True, 0.993, 0.155261
2023/07/07 05:02:16.032, True, 0.674, 0.156100
2023/07/07 05:02:16.536, True, 0.664, 0.155413
2023/07/07 05:02:17.040, True, 0.663, 0.156863
2023/07/07 05:02:17.544, True, 0.994, 0.155413
2023/07/07 05:02:18.040, True, 0.673, 0.155337
2023/07/07 05:02:18.544, True, 0.664, 0.156710
2023/07/07 05:02:19.048, True, 0.663, 0.156710
2023/07/07 05:02:19.544, True, 0.674, 0.156100
2023/07/07 05:02:20.048, True, 0.995, 0.155718
2023/07/07 05:02:20.544, True, 0.337, 0.156481
2023/07/07 05:02:21.048, True, 0.996, 0.157473
2023/07/07 05:02:21.552, True, 0.663, 0.156863
2023/07/07 05:02:22.056, True, 0.663, 0.157092
2023/07/07 05:02:22.552, True, 0.674, 0.157397
2023/07/07 05:02:23.056, True, 0.663, 0.157397
2023/07/07 05:02:23.552, True, 1.011, 0.157092
2023/07/07 05:02:24.056, True, 0.663, 0.155871
2023/07/07 05:02:24.559, True, 0.663, 0.156405
2023/07/07 05:02:25.056, True, 0.674, 0.158236
2023/07/07 05:02:25.560, True, 0.664, 0.157549
2023/07/07 05:02:26.064, True, 0.664, 0.155718
2023/07/07 05:02:26.560, True, 0.673, 0.157321
2023/07/07 05:02:27.064, True, 0.995, 0.156405
2023/07/07 05:02:27.568, True, 0.663, 0.158999
2023/07/07 05:02:28.064, True, 0.675, 0.155337
2023/07/07 05:02:28.568, True, 0.662, 0.156176
2023/07/07 05:02:29.072, True, 0.663, 0.157931
2023/07/07 05:02:29.568, True, 0.674, 0.157473
2023/07/07 05:02:30.072, True, 0.995, 0.157626
2023/07/07 05:02:30.576, True, 0.663, 0.156329
2023/07/07 05:02:31.072, True, 0.674, 0.156634
2023/07/07 05:02:31.576, True, 0.663, 0.157015
2023/07/07 05:02:32.080, True, 0.663, 0.156329
2023/07/07 05:02:32.576, True, 1.011, 0.158083
2023/07/07 05:02:33.080, True, 0.663, 0.157092
2023/07/07 05:02:33.584, True, 0.663, 0.158465
2023/07/07 05:02:34.080, True, 0.674, 0.158312
2023/07/07 05:02:34.584, True, 0.663, 0.157702
2023/07/07 05:02:35.087, True, 0.663, 0.156939
2023/07/07 05:02:35.584, True, 1.011, 0.156329
2023/07/07 05:02:36.088, True, 0.663, 0.158999
2023/07/07 05:02:36.584, True, 0.674, 0.157702
2023/07/07 05:02:37.088, True, 0.663, 0.158770
2023/07/07 05:02:37.592, True, 0.996, 0.157855
2023/07/07 05:02:38.088, True, 0.673, 0.158312
2023/07/07 05:02:38.592, True, 0.663, 0.157855
2023/07/07 05:02:39.096, True, 0.664, 0.155947
2023/07/07 05:02:39.592, True, 0.673, 0.159304
2023/07/07 05:02:40.096, True, 0.995, 0.158083
2023/07/07 05:02:40.600, True, 0.663, 0.157397
2023/07/07 05:02:41.096, True, 0.675, 0.157244
2023/07/07 05:02:41.600, True, 0.663, 0.156023
2023/07/07 05:02:42.104, True, 0.662, 0.155871
2023/07/07 05:02:42.600, True, 0.674, 0.159304
2023/07/07 05:02:43.104, True, 0.995, 0.158846
2023/07/07 05:02:43.608, True, 0.663, 0.157549
2023/07/07 05:02:44.104, True, 0.674, 0.158007
2023/07/07 05:02:44.608, True, 0.663, 0.157015
2023/07/07 05:02:45.112, True, 0.995, 0.155032
2023/07/07 05:02:45.608, True, 0.674, 0.158236
2023/07/07 05:02:46.112, True, 0.663, 0.156405
2023/07/07 05:02:46.616, True, 0.663, 0.155947
2023/07/07 05:02:47.112, True, 0.674, 0.157397
2023/07/07 05:02:47.616, True, 0.995, 0.158236
2023/07/07 05:02:48.120, True, 0.664, 0.155947
2023/07/07 05:02:48.616, True, 0.674, 0.157855
2023/07/07 05:02:49.120, True, 0.663, 0.159304
2023/07/07 05:02:49.616, True, 0.674, 0.155795
2023/07/07 05:02:50.120, True, 0.663, 0.155718
2023/07/07 05:02:50.624, True, 0.663, 0.160372
2023/07/07 05:02:51.120, True, 1.011, 0.159228
2023/07/07 05:02:51.624, True, 0.663, 0.157549
2023/07/07 05:02:52.128, True, 0.663, 0.157473
2023/07/07 05:02:52.624, True, 0.674, 0.156405
2023/07/07 05:02:53.128, True, 0.995, 0.159304
2023/07/07 05:02:53.632, True, 0.663, 0.157931
2023/07/07 05:02:54.128, True, 0.674, 0.156329
2023/07/07 05:02:54.632, True, 0.663, 0.158007
2023/07/07 05:02:55.136, True, 0.663, 0.157168
2023/07/07 05:02:55.632, True, 0.674, 0.157015
2023/07/07 05:02:56.136, True, 0.994, 0.157931
2023/07/07 05:02:56.640, True, 0.664, 0.156329
2023/07/07 05:02:57.136, True, 0.673, 0.156329
2023/07/07 05:02:57.640, True, 0.663, 0.158618
2023/07/07 05:02:58.144, True, 0.663, 0.158770
2023/07/07 05:02:58.640, True, 1.011, 0.158999
2023/07/07 05:02:59.144, True, 0.663, 0.157015
2023/07/07 05:02:59.648, True, 0.664, 0.157092
2023/07/07 05:03:00.144, True, 0.673, 0.157168
2023/07/07 05:03:00.647, True, 0.663, 0.158160
2023/07/07 05:03:01.144, True, 1.011, 0.157244
2023/07/07 05:03:01.648, True, 0.663, 0.157015
2023/07/07 05:03:02.152, True, 0.664, 0.157702
2023/07/07 05:03:02.648, True, 0.674, 0.158083
2023/07/07 05:03:03.152, True, 0.663, 0.156939
2023/07/07 05:03:03.656, True, 0.663, 0.157321
2023/07/07 05:03:04.152, True, 0.674, 0.157702
2023/07/07 05:03:04.656, True, 0.665, 0.157626
2023/07/07 05:03:05.160, True, 0.993, 0.156710
2023/07/07 05:03:05.656, True, 0.674, 0.157855
2023/07/07 05:03:06.160, True, 0.663, 0.155947
2023/07/07 05:03:06.664, True, 0.663, 0.156100
2023/07/07 05:03:07.160, True, 0.674, 0.157015
2023/07/07 05:03:07.664, True, 0.996, 0.155108
2023/07/07 05:03:08.168, True, 0.331, 0.156710
2023/07/07 05:03:08.664, True, 1.011, 0.157473
2023/07/07 05:03:09.168, True, 0.663, 0.157321
2023/07/07 05:03:09.672, True, 0.663, 0.157015
2023/07/07 05:03:10.168, True, 0.674, 0.158236
2023/07/07 05:03:10.672, True, 0.663, 0.158083
2023/07/07 05:03:11.176, True, 0.663, 0.155871
2023/07/07 05:03:11.672, True, 1.012, 0.156405
2023/07/07 05:03:12.176, True, 0.663, 0.156786
2023/07/07 05:03:12.680, True, 0.663, 0.157092
2023/07/07 05:03:13.176, True, 0.674, 0.156710
2023/07/07 05:03:13.680, True, 0.663, 0.158923
2023/07/07 05:03:14.184, True, 0.663, 0.156329
2023/07/07 05:03:14.680, True, 0.674, 0.158770
2023/07/07 05:03:15.184, True, 0.663, 0.157702
2023/07/07 05:03:15.688, True, 0.663, 0.156023
2023/07/07 05:03:16.184, True, 0.674, 0.157778
2023/07/07 05:03:16.688, True, 0.995, 0.156786
2023/07/07 05:03:17.184, True, 0.674, 0.155642
2023/07/07 05:03:17.688, True, 0.663, 0.157549
2023/07/07 05:03:18.192, True, 0.995, 0.157778
2023/07/07 05:03:18.688, True, 0.674, 0.155718
2023/07/07 05:03:19.192, True, 0.663, 0.156786
2023/07/07 05:03:19.696, True, 0.663, 0.155108
2023/07/07 05:03:20.200, True, 0.663, 0.156863
2023/07/07 05:03:20.696, True, 0.674, 0.157473
2023/07/07 05:03:21.200, True, 0.663, 0.158541
2023/07/07 05:03:21.704, True, 0.663, 0.158999
2023/07/07 05:03:22.200, True, 0.674, 0.156710
2023/07/07 05:03:22.704, True, 0.663, 0.154345
2023/07/07 05:03:23.208, True, 0.995, 0.158389
2023/07/07 05:03:23.704, True, 0.674, 0.158389
2023/07/07 05:03:24.208, True, 0.663, 0.156939
2023/07/07 05:03:24.712, True, 0.995, 0.157015
2023/07/07 05:03:25.208, True, 0.674, 0.157473
2023/07/07 05:03:25.712, True, 0.663, 0.156710
2023/07/07 05:03:26.216, True, 0.663, 0.154955
2023/07/07 05:03:26.712, True, 0.674, 0.156710
2023/07/07 05:03:27.216, True, 0.663, 0.155642
2023/07/07 05:03:27.712, True, 0.674, 0.157168
2023/07/07 05:03:28.216, True, 0.995, 0.157244
2023/07/07 05:03:28.720, True, 0.663, 0.158541
2023/07/07 05:03:29.216, True, 0.674, 0.156939
2023/07/07 05:03:29.720, True, 0.663, 0.155566
2023/07/07 05:03:30.224, True, 0.663, 0.157473
2023/07/07 05:03:30.720, True, 0.674, 0.156329
2023/07/07 05:03:31.224, True, 0.663, 0.157626
2023/07/07 05:03:31.728, True, 0.997, 0.155261
2023/07/07 05:03:32.224, True, 0.673, 0.154192
2023/07/07 05:03:32.728, True, 0.663, 0.157626
2023/07/07 05:03:33.232, True, 0.663, 0.156939
2023/07/07 05:03:33.728, True, 0.674, 0.157168
2023/07/07 05:03:34.232, True, 0.664, 0.154421
2023/07/07 05:03:34.736, True, 0.994, 0.155947
2023/07/07 05:03:35.232, True, 0.674, 0.155184
2023/07/07 05:03:35.736, True, 0.663, 0.156405
2023/07/07 05:03:36.240, True, 0.664, 0.157778
2023/07/07 05:03:36.736, True, 0.673, 0.157778
2023/07/07 05:03:37.240, True, 0.664, 0.155032
2023/07/07 05:03:37.744, True, 0.994, 0.157626
2023/07/07 05:03:38.240, True, 0.675, 0.157626
2023/07/07 05:03:38.744, True, 0.662, 0.157778
2023/07/07 05:03:39.248, True, 0.663, 0.157092
2023/07/07 05:03:39.744, True, 0.675, 0.157626
2023/07/07 05:03:40.247, True, 0.662, 0.154803
2023/07/07 05:03:40.743, True, 0.674, 0.155871
2023/07/07 05:03:41.248, True, 0.995, 0.157168
2023/07/07 05:03:41.752, True, 0.664, 0.158999
2023/07/07 05:03:42.256, True, 0.662, 0.157931
2023/07/07 05:03:42.752, True, 0.674, 0.157092
2023/07/07 05:03:43.256, True, 0.663, 0.154650
2023/07/07 05:03:43.760, True, 0.663, 0.157015
2023/07/07 05:03:44.256, True, 0.674, 0.157778
2023/07/07 05:03:44.760, True, 0.995, 0.155795
2023/07/07 05:03:45.264, True, 0.663, 0.155871
2023/07/07 05:03:45.760, True, 0.674, 0.156863
2023/07/07 05:03:46.264, True, 0.663, 0.156329
2023/07/07 05:03:46.768, True, 0.663, 0.158083
2023/07/07 05:03:47.264, True, 1.010, 0.158236
2023/07/07 05:03:47.768, True, 0.663, 0.155947
2023/07/07 05:03:48.272, True, 0.664, 0.158312
2023/07/07 05:03:48.768, True, 0.673, 0.155871
2023/07/07 05:03:49.272, True, 0.663, 0.156252
2023/07/07 05:03:49.776, True, 0.663, 0.158160
2023/07/07 05:03:50.272, True, 0.674, 0.155184
2023/07/07 05:03:50.776, True, 0.995, 0.157168
2023/07/07 05:03:51.280, True, 0.663, 0.155566
2023/07/07 05:03:51.776, True, 0.674, 0.158389
2023/07/07 05:03:52.280, True, 0.663, 0.156023
2023/07/07 05:03:52.784, True, 0.662, 0.156176
2023/07/07 05:03:53.280, True, 1.013, 0.157092
2023/07/07 05:03:53.784, True, 0.663, 0.156100
2023/07/07 05:03:54.280, True, 0.673, 0.155184
2023/07/07 05:03:54.784, True, 0.664, 0.156176
2023/07/07 05:03:55.287, True, 0.664, 0.156176
2023/07/07 05:03:55.792, True, 0.663, 0.154726
2023/07/07 05:03:56.288, True, 1.011, 0.155566
2023/07/07 05:03:56.792, True, 0.662, 0.154803
2023/07/07 05:03:57.296, True, 0.663, 0.158618
2023/07/07 05:03:57.800, True, 0.664, 0.157778
2023/07/07 05:03:58.296, True, 0.673, 0.155489
2023/07/07 05:03:58.800, True, 0.663, 0.156710
2023/07/07 05:03:59.304, True, 0.995, 0.155261
2023/07/07 05:03:59.800, True, 0.674, 0.158312
2023/07/07 05:04:00.304, True, 0.663, 0.158541
2023/07/07 05:04:00.808, True, 0.663, 0.158160
2023/07/07 05:04:01.304, True, 0.674, 0.154803
2023/07/07 05:04:01.808, True, 0.995, 0.157168
2023/07/07 05:04:02.312, True, 0.664, 0.155642
2023/07/07 05:04:02.808, True, 0.673, 0.156023
2023/07/07 05:04:03.312, True, 0.663, 0.157397
2023/07/07 05:04:03.816, True, 0.664, 0.154650
2023/07/07 05:04:04.312, True, 0.673, 0.156176
2023/07/07 05:04:04.816, True, 0.663, 0.156176
2023/07/07 05:04:05.320, True, 0.663, 0.157473
2023/07/07 05:04:05.816, True, 0.674, 0.156405
2023/07/07 05:04:06.320, True, 0.995, 0.155337
2023/07/07 05:04:06.824, True, 0.664, 0.157244
2023/07/07 05:04:07.320, True, 0.673, 0.157702
2023/07/07 05:04:07.824, True, 0.663, 0.157321
2023/07/07 05:04:08.320, True, 0.674, 0.154650
2023/07/07 05:04:08.824, True, 0.664, 0.156023
2023/07/07 05:04:09.328, True, 0.993, 0.155184
2023/07/07 05:04:09.832, True, 0.663, 0.157092
2023/07/07 05:04:10.328, True, 0.674, 0.155337